Fort Knox, KY

6:45 PM EDT on March 28, 2017 (GMT -0400)
Godman Army Air Field

Weather History for KFTK - April, 2013

Change the Weather History Date:

Thursday, April 4, 2013

  Actual Average Record
Temperature  
Mean Temperature 45 °F -  
Max Temperature 52 °F 63 °F 80 °F (2012)
Min Temperature 38 °F 42 °F 33 °F (2002)
Degree Days  
Heating Degree Days 20    
Moisture  
Dew Point 20 °F    
Average Humidity 38    
Maximum Humidity 61    
Minimum Humidity 31    
Precipitation  
Precipitation 0.00 in - - ()
Sea Level Pressure  
Sea Level Pressure 30.11 in    
Wind  
Wind Speed 7 mph (ENE)    
Max Wind Speed 12 mph    
Max Gust Speed -    
Visibility 10 miles    
Events      
Averages and records for this station are not official NWS values.
T = Trace of Precipitation, MM = Missing Value Source: NWS Daily Summary

Daily Weather History Graph

Daily Weather History Graph

Search for Another Location

Airport or City:

Trip Planner

Search our weather history database for the weather conditions in past years. The results will help you decide how hot, cold, wet, or windy it might be!

Date:

Astronomy

Apr. 04, 2013 Rise Set
Actual Time 7:24 AM EDT 8:09 PM EDT
Civil Twilight 6:57 AM EDT 8:36 PM EDT
Nautical Twilight 6:26 AM EDT 9:08 PM EDT
Astronomical Twilight 5:53 AM EDT 9:40 PM EDT
Moon 3:44 AM EDT (4/4) 2:32 PM EDT (4/4)
Length of Visible Light 13h 38m
Length of Day
12h 45m
Waning Crescent, 34% of the Moon is Illuminated
Apr 4
Waning Crescent
Apr 10
New
Apr 18
First Quarter
Apr 25
Full
May 2
Last Quarter

Hourly Weather History & Observations

Time (EDT) Temp. Windchill Dew Point Humidity Pressure Visibility Wind Dir Wind Speed Gust Speed Precip Events Conditions
12:55 AM 42.1 °F 37.1 °F 14.0 °F 32% 30.26 in 10.0 mi NE 8.1 mph - N/A   Scattered Clouds
1:55 AM 41.0 °F 35.8 °F 14.5 °F 34% 30.25 in 10.0 mi NE 8.1 mph - N/A   Scattered Clouds
2:55 AM 40.3 °F 34.4 °F 14.9 °F 36% 30.23 in 10.0 mi ENE 9.2 mph - N/A   Mostly Cloudy
3:55 AM 39.7 °F 33.2 °F 14.9 °F 36% 30.19 in 10.0 mi ENE 10.4 mph - N/A   Clear
4:55 AM 39.4 °F 32.7 °F 14.7 °F 37% 30.18 in 10.0 mi ENE 10.4 mph - N/A   Partly Cloudy
5:55 AM 39.0 °F 32.3 °F 14.9 °F 37% 30.17 in 10.0 mi ENE 10.4 mph - N/A   Clear
6:55 AM 38.3 °F 32.5 °F 14.9 °F 39% 30.16 in 10.0 mi NE 8.1 mph - N/A   Overcast
7:55 AM 38.1 °F 31.7 °F 15.8 °F 40% 30.17 in 10.0 mi NE 9.2 mph - N/A   Partly Cloudy
8:55 AM 39.2 °F 32.0 °F 16.2 °F 39% 30.16 in 10.0 mi NE 11.5 mph - N/A   Mostly Cloudy
9:55 AM 41.0 °F 35.2 °F 16.7 °F 37% 30.14 in 10.0 mi NE 9.2 mph - N/A   Overcast
10:55 AM 43.2 °F 37.9 °F 17.2 °F 35% 30.14 in 10.0 mi ENE 9.2 mph - N/A   Overcast
11:55 AM 45.5 °F 40.8 °F 18.7 °F 34% 30.13 in 10.0 mi East 9.2 mph - N/A   Overcast
12:55 PM 47.7 °F - 18.7 °F 32% 30.12 in 10.0 mi ENE 3.5 mph - N/A   Overcast
1:55 PM 49.1 °F - 19.6 °F 31% 30.09 in 10.0 mi Calm Calm - N/A   Overcast
2:55 PM 50.2 °F - 20.3 °F 31% 30.07 in 10.0 mi Variable 3.5 mph - N/A   Partly Cloudy
3:55 PM 50.9 °F - 20.8 °F 31% 30.05 in 10.0 mi Calm Calm - N/A   Partly Cloudy
4:55 PM 51.8 °F - 21.6 °F 31% 30.03 in 10.0 mi Calm Calm - N/A   Scattered Clouds
5:55 PM 52.2 °F - 22.6 °F 32% 30.03 in 10.0 mi South 3.5 mph - N/A   Mostly Cloudy
6:55 PM 51.8 °F - 25.3 °F 36% 30.03 in 10.0 mi SSE 5.8 mph - N/A   Overcast
7:55 PM 49.8 °F - 27.9 °F 43% 30.02 in 10.0 mi SW 3.5 mph - N/A   Overcast
8:55 PM 48.0 °F - 27.9 °F 46% 30.02 in 10.0 mi Variable 3.5 mph - N/A   Overcast
9:55 PM 48.4 °F - 26.4 °F 42% 30.03 in 10.0 mi Calm Calm - N/A   Overcast
10:55 PM 44.4 °F - 28.0 °F 53% 30.03 in 10.0 mi Calm Calm - N/A   Partly Cloudy
11:55 PM 39.4 °F - 26.8 °F 61% 30.02 in 10.0 mi Calm Calm - N/A   Clear